Regional Weather Roundup
Issued by NWS

Home | Current Version | Previous Version | Graphics & Text | Print | Product List | Glossary On
Versions: 1 2 3 4 5 6 7 8 9 10 11 12 13 14 15 16 17 18 19 20 21 22 23 24 25 26 27 28 29 30 31 32 33 34 35 36 37 38 39 40 41 42 43 44 45 46 47 48 49 50
000
ASUS43 KLOT 301700
RWRIL

ILLINOIS REGIONAL WEATHER ROUNDUP
NATIONAL WEATHER SERVICE CHICAGO/ROMEOVILLE IL
1200 PM CDT THU JUL 30 2015

NOTE: "FAIR" INDICATES FEW OR NO CLOUDS BELOW 12,000 FEET WITH NO
SIGNIFICANT WEATHER AND/OR OBSTRUCTIONS TO VISIBILITY.

* THESE STATIONS ARE NOT UNDER NWS QUALITY CONTROL. THEY ALSO MAY NOT
  REPORT WEATHER SUCH AS PRECIPITATION OR FOG.

ILZ001-002-007-009-015-016-024-301800-
NORTHWEST ILLINOIS

CITY           SKY/WX    TMP DP  RH WIND       PRES   REMARKS
MOLINE         SUNNY     84  63  49 W8        30.12S HX  85
STERLING*      SUNNY     84  64  51 W8        30.08R HX  86
$$

ILZ003-004-008-010-011-017-018-301800-
NORTH CENTRAL ILLINOIS

CITY           SKY/WX    TMP DP  RH WIND       PRES   REMARKS
ROCKFORD       SUNNY     85  55  35 NW15      30.10R HX  83
$$

ILZ005-006-012>014-019>023-301800-
NORTHEAST ILLINOIS

CITY           SKY/WX    TMP DP  RH WIND       PRES   REMARKS
CHICAGO-OHARE  MOSUNNY   85  53  33 NW21      30.06S HX  83
CHICAGO-MIDWAY SUNNY     87  52  29 NW15      30.06F HX  85
AURORA         SUNNY     83  60  45 NW10      30.09S HX  83
WAUKEGAN       SUNNY     82  57  42 W10       30.05R HX  82
DUPAGE AIRPORT SUNNY     84  55  36 NW15      30.08S HX  83
WHEELING       SUNNY     85  53  33 W15G23    30.07S HX  83
NORTHERLY ISL    N/A     83  50  31 W9          N/A  HX  81
$$

LMZ740>746-301800-
SOUTHERN LAKE MICHIGAN

STATION/POSITION SKY/WX   TEMP    WIND        PRES    VSBY  WAVE
                          AIR SEA DIR/SP/G                  HT/PER
                          (F)     (DEG/KT/KT) (MB)    (MI)  (FT/S)
HARRISON CRIB              79     310/ 13/ 17   N/A
BURNHAM HARBOR             81     320/ 12/ 13   N/A
CALUMET HARBOR             82     300/  7/ 12   N/A
BURNS HARBOR               75     280/  7/  9 1018.6R
MICHIGAN CITY              73     240/ 10/ 12   N/A
MICHIGAN CITY 6N           73 73  280/  8/ 12   N/A           3/ 5
ST. JOSEPH                 72 73  300/ 12/ 14   N/A           3/ 5
$$

ILZ025>027-034>036-040-047-049-050-058-095>099-301800-
WEST-CENTRAL ILLINOIS

CITY           SKY/WX    TMP DP  RH WIND       PRES   REMARKS
QUINCY         SUNNY     84  60  44 NW9       30.18S HX  84
$$

ILZ028>032-037-038-041>044-048-051>054-059>061-301800-
CENTRAL ILLINOIS

CITY           SKY/WX    TMP DP  RH WIND       PRES   REMARKS
DECATUR        SUNNY     85  62  46 W9        30.15S HX  85
PEORIA         SUNNY     84  64  50 W8        30.14R HX  85
SPRINGFIELD    SUNNY     85  64  49 NW10      30.16R HX  86
TAYLORVILLE    NOT AVBL
$$

ILZ033-039-045-046-055>057-062-063-301800-
EAST-CENTRAL ILLINOIS

CITY           SKY/WX    TMP DP  RH WIND       PRES   REMARKS
CHAMPAIGN      SUNNY     83  65  54 W8        30.14S HX  85
MATTOON        SUNNY     85  60  42 NW9       30.14S HX  85
$$

ILZ079-100>102-301800-
SOUTHWEST ILLINOIS

CITY           SKY/WX    TMP DP  RH WIND       PRES   REMARKS
ALTON          SUNNY     82  61  47 MISG      30.18S HX  83
CAHOKIA*       SUNNY     89  55  31 NE3       30.17S HX  87
$$

ILZ064>066-069>071-074>076-080>082-084>086-088>090-092>094-301800-
SOUTH-CENTRAL ILLINOIS

CITY           SKY/WX    TMP DP  RH WIND       PRES   REMARKS
CARBONDALE     SUNNY     84  61  45 NE7       30.16S HX  84
MARION         SUNNY     86  59  39 N9        30.17R HX  85
MT. VERNON     SUNNY     84  61  45 CALM      30.16S HX  84
$$

ILZ067-068-072-073-078-083-087-091-301800-
SOUTHEAST ILLINOIS

CITY           SKY/WX    TMP DP  RH WIND       PRES   REMARKS
LAWRENCEVILLE  SUNNY     84  61  45 NW8       30.13F HX  84
$$

ABBREVIATIONS USED IN REMARKS
   TC - TEMPERATURE IN CELSIUS
  WCI - WIND CHILL INDEX
   HX - HEAT INDEX
  VSB - VISIBILITY
$$




USA.gov is the U.S. government's official web portal to all federal, state and local government web resources and services.